Middleton, WI

4:46 AM CDT on March 23, 2017 (GMT -0500)
Middleton

Weather History for KC29 - April, 2014

Change the Weather History Date:

Friday, April 25, 2014

  Actual Average (KMSN) Record (KMSN)
Temperature  
Mean Temperature 55 °F -  
Max Temperature 68 °F 64 °F 85 °F (1990)
Min Temperature 42 °F 37 °F 21 °F (1972)
Degree Days  
Heating Degree Days 10    
Growing Degree Days 5 (Base 50)    
Moisture  
Dew Point 38 °F    
Average Humidity 61    
Maximum Humidity 95    
Minimum Humidity 23    
Precipitation  
Precipitation 0.00 in - - ()
Sea Level Pressure  
Sea Level Pressure 29.78 in    
Wind  
Wind Speed 9 mph (WNW)    
Max Wind Speed 23 mph    
Max Gust Speed 30 mph    
Visibility 9 miles    
Events      
Averages and records for this station are not official NWS values.
T = Trace of Precipitation, MM = Missing Value Source: NWS Daily Summary

Daily Weather History Graph

Daily Weather History Graph

Search for Another Location

Airport or City:

Trip Planner

Search our weather history database for the weather conditions in past years. The results will help you decide how hot, cold, wet, or windy it might be!

Date:

Astronomy

Apr. 25, 2014 Rise Set
Actual Time 6:00 AM CDT 7:52 PM CDT
Civil Twilight 5:29 AM CDT 8:23 PM CDT
Nautical Twilight 4:52 AM CDT 9:00 PM CDT
Astronomical Twilight 4:12 AM CDT 9:40 PM CDT
Moon 3:55 AM CDT (4/25) 4:09 PM CDT (4/25)
Length of Visible Light 14h 53m
Length of Day
13h 52m
Waning Crescent, 15% of the Moon is Illuminated
Apr 25
Waning Crescent
Apr 29
New
May 6
First Quarter
May 14
Full
May 21
Last Quarter

Hourly Weather History & Observations

Time (CDT) Temp. Windchill Dew Point Humidity Pressure Visibility Wind Dir Wind Speed Gust Speed Precip Events Conditions
12:15 AM 51.8 °F - 50.4 °F 95% 29.68 in 2.5 mi WSW 3.5 mph - 0.02 in   Overcast
12:35 AM 51.8 °F - 50.4 °F 95% 29.68 in 2.5 mi West 8.1 mph - 0.03 in   Overcast
12:50 AM 51.3 °F - 50.0 °F 95% 29.68 in 7.0 mi WNW 12.7 mph - 0.03 in   Overcast
1:15 AM 50.0 °F - 48.6 °F 95% 29.69 in 5.0 mi NW 11.5 mph - N/A   Overcast
1:35 AM 49.3 °F - 47.7 °F 94% 29.69 in 7.0 mi NNW 11.5 mph - N/A   Overcast
1:55 AM 48.6 °F - 46.2 °F 92% 29.69 in 7.0 mi NNW 10.4 mph 18.4 mph N/A   Overcast
2:15 AM 48.6 °F - 45.9 °F 90% 29.69 in 7.0 mi NNW 10.4 mph - N/A   Overcast
2:35 AM 47.5 °F - 43.9 °F 87% 29.70 in 10.0 mi NW 11.5 mph - N/A   Overcast
2:55 AM 46.8 °F - 43.0 °F 87% 29.69 in 10.0 mi NW 11.5 mph - N/A   Overcast
3:15 AM 45.9 °F 41.2 °F 42.3 °F 87% 29.70 in 10.0 mi NW 9.2 mph - N/A   Overcast
3:35 AM 45.5 °F 41.3 °F 42.1 °F 88% 29.71 in 10.0 mi NNW 8.1 mph - N/A   Mostly Cloudy
3:55 AM 45.0 °F 40.6 °F 41.9 °F 89% 29.71 in 10.0 mi NNW 8.1 mph - N/A   Mostly Cloudy
4:10 AM 44.8 °F 38.7 °F 41.0 °F 87% 29.72 in 10.0 mi NW 12.7 mph - N/A   Scattered Clouds
4:55 AM 44.4 °F 39.5 °F 40.8 °F 87% 29.74 in 10.0 mi WNW 9.2 mph - N/A   Mostly Cloudy
5:15 AM 44.4 °F 39.0 °F 40.1 °F 85% 29.75 in 10.0 mi WNW 10.4 mph - N/A   Overcast
5:35 AM 43.5 °F 38.9 °F 39.6 °F 86% 29.74 in 10.0 mi WNW 8.1 mph - N/A   Mostly Cloudy
5:55 AM 42.8 °F 38.6 °F 39.0 °F 86% 29.75 in 7.0 mi NW 6.9 mph - N/A   Scattered Clouds
6:15 AM 42.3 °F 37.9 °F 38.7 °F 87% 29.76 in 7.0 mi WNW 6.9 mph - N/A   Clear
6:35 AM 42.3 °F 38.6 °F 39.2 °F 89% 29.77 in 7.0 mi NW 5.8 mph - N/A   Clear
6:55 AM 42.4 °F 38.1 °F 39.2 °F 88% 29.78 in 7.0 mi NNW 6.9 mph - N/A   Clear
7:15 AM 42.8 °F 40.1 °F 39.6 °F 88% 29.79 in 7.0 mi NW 4.6 mph - N/A   Clear
7:35 AM 44.2 °F 41.8 °F 40.8 °F 88% 29.80 in 7.0 mi WNW 4.6 mph - N/A   Clear
7:55 AM 45.9 °F 41.7 °F 41.0 °F 83% 29.81 in 7.0 mi WNW 8.1 mph - N/A   Clear
8:15 AM 46.8 °F - 41.4 °F 81% 29.81 in 7.0 mi WNW 6.9 mph - N/A   Scattered Clouds
8:35 AM 48.2 °F - 41.7 °F 78% 29.81 in 7.0 mi WNW 6.9 mph - N/A   Scattered Clouds
8:55 AM 48.9 °F - 41.4 °F 75% 29.81 in 10.0 mi NW 5.8 mph - N/A   Scattered Clouds
9:15 AM 50.0 °F - 41.5 °F 73% 29.81 in 10.0 mi WNW 6.9 mph - N/A   Clear
9:35 AM 51.3 °F - 42.1 °F 71% 29.81 in 10.0 mi West 6.9 mph - N/A   Clear
9:55 AM 52.5 °F - 42.3 °F 68% 29.81 in 10.0 mi WNW 6.9 mph - N/A   Clear
10:15 AM 54.0 °F - 42.1 °F 64% 29.81 in 10.0 mi West 4.6 mph - N/A   Scattered Clouds
10:30 AM 54.7 °F - 42.4 °F 63% 29.80 in 10.0 mi West 6.9 mph - N/A   Clear
10:55 AM 56.5 °F - 42.8 °F 60% 29.80 in 10.0 mi West 6.9 mph - N/A   Clear
11:15 AM 58.1 °F - 42.1 °F 55% 29.80 in 10.0 mi West 9.2 mph - N/A   Clear
11:30 AM 59.2 °F - 41.9 °F 53% 29.79 in 10.0 mi West 10.4 mph - N/A   Clear
11:55 AM 60.8 °F - 42.3 °F 50% 29.78 in 10.0 mi WSW 13.8 mph 17.3 mph N/A   Scattered Clouds
12:10 PM 62.2 °F - 40.6 °F 45% 29.78 in 10.0 mi West 9.2 mph 18.4 mph N/A   Scattered Clouds
12:30 PM 63.9 °F - 40.6 °F 43% 29.78 in 10.0 mi West 18.4 mph 21.9 mph N/A   Clear
12:50 PM 64.2 °F - 37.9 °F 38% 29.77 in 10.0 mi WNW 13.8 mph 20.7 mph N/A   Scattered Clouds
1:10 PM 65.7 °F - 39.4 °F 38% 29.77 in 10.0 mi West 15.0 mph 24.2 mph N/A   Scattered Clouds
1:30 PM 65.3 °F - 37.9 °F 36% 29.77 in 10.0 mi WNW 15.0 mph 20.7 mph N/A   Scattered Clouds
1:50 PM 65.3 °F - 34.5 °F 32% 29.77 in 10.0 mi WNW 18.4 mph 26.5 mph N/A   Scattered Clouds
2:15 PM 66.9 °F - 33.3 °F 29% 29.77 in 10.0 mi West 23.0 mph 28.8 mph N/A   Mostly Cloudy
2:30 PM 66.9 °F - 32.7 °F 28% 29.77 in 10.0 mi WNW 13.8 mph 29.9 mph N/A   Scattered Clouds
2:50 PM 63.9 °F - 30.7 °F 29% 29.77 in 10.0 mi WNW 19.6 mph 25.3 mph N/A   Clear
3:15 PM 66.7 °F - 32.0 °F 27% 29.77 in 10.0 mi NW 12.7 mph 24.2 mph N/A   Scattered Clouds
3:30 PM 66.4 °F - 31.6 °F 27% 29.77 in 10.0 mi NW 16.1 mph 21.9 mph N/A   Scattered Clouds
3:50 PM 66.4 °F - 30.7 °F 26% 29.77 in 10.0 mi WNW 12.7 mph 19.6 mph N/A   Scattered Clouds
4:10 PM 67.6 °F - 29.3 °F 24% 29.77 in 10.0 mi WNW 19.6 mph 27.6 mph N/A   Mostly Cloudy
4:30 PM 68.0 °F - 29.7 °F 24% 29.77 in 10.0 mi WNW 17.3 mph 27.6 mph N/A   Mostly Cloudy
4:50 PM 67.3 °F - 28.2 °F 23% 29.77 in 10.0 mi West 18.4 mph 25.3 mph N/A   Mostly Cloudy
5:10 PM 64.2 °F - 28.0 °F 26% 29.78 in 10.0 mi WNW 12.7 mph 21.9 mph N/A   Scattered Clouds
5:30 PM 64.4 °F - 28.0 °F 25% 29.78 in 10.0 mi WNW 16.1 mph 20.7 mph N/A   Mostly Cloudy
5:50 PM 64.0 °F - 28.8 °F 26% 29.78 in 10.0 mi WNW 11.5 mph - N/A   Mostly Cloudy
6:10 PM 65.8 °F - 28.4 °F 25% 29.79 in 10.0 mi WNW 11.5 mph - N/A   Scattered Clouds
6:35 PM 64.8 °F - 27.7 °F 25% 29.79 in 10.0 mi WNW 10.4 mph - N/A   Scattered Clouds
6:50 PM 63.9 °F - 30.0 °F 28% 29.79 in 10.0 mi West 9.2 mph - N/A   Scattered Clouds
7:10 PM 62.4 °F - 27.9 °F 27% 29.79 in 10.0 mi WNW 13.8 mph - N/A   Scattered Clouds
7:30 PM 61.2 °F - 29.3 °F 30% 29.80 in 10.0 mi WNW 6.9 mph - N/A   Scattered Clouds
7:50 PM 57.9 °F - 31.5 °F 37% 29.80 in 10.0 mi West 6.9 mph - N/A   Scattered Clouds
8:10 PM 58.1 °F - 30.2 °F 35% 29.81 in 10.0 mi West 4.6 mph - N/A   Clear
8:30 PM 54.0 °F - 32.9 °F 45% 29.82 in 10.0 mi West 3.5 mph - N/A   Clear
8:55 PM 49.5 °F - 35.6 °F 59% 29.83 in 10.0 mi Calm Calm - N/A   Clear
9:15 PM 50.7 °F - 36.3 °F 58% 29.83 in 10.0 mi West 3.5 mph - N/A   Clear
9:35 PM 45.5 °F - 35.6 °F 68% 29.84 in 10.0 mi Calm Calm - N/A   Clear
9:55 PM 48.4 °F - 36.1 °F 63% 29.84 in 10.0 mi Calm Calm - N/A   Clear
10:15 PM 46.0 °F - 36.7 °F 70% 29.85 in 10.0 mi Calm Calm - N/A   Clear
10:30 PM 45.9 °F - 35.8 °F 68% 29.85 in 10.0 mi Calm Calm - N/A   Clear
10:50 PM 44.4 °F - 35.6 °F 71% 29.83 in 10.0 mi Calm Calm - N/A   Clear
11:10 PM 44.8 °F - 36.5 °F 73% 29.83 in 10.0 mi Calm Calm - N/A   Clear
11:30 PM 43.3 °F 40.7 °F 34.5 °F 71% 29.84 in 10.0 mi North 4.6 mph - N/A   Clear
11:55 PM 43.2 °F 41.5 °F 37.0 °F 79% 29.85 in 10.0 mi NW 3.5 mph - N/A   Clear